Location: Boiro
(42.6475°N, 8.8834°W)
Time: 02:36:29
(UTC+01:00)

Transit 2A Rocket - Pass Details

Date: 08 December 2021
Orbit: 584 x 917 km, 66.7° (Epoch: 23 January)

Event Time Altitude Azimuth Distance (km) Brightness Sun altitude
Rises 18:18:17 0° 316° (NW) 3,535 8.6 -3.5°
Reaches altitude 10° 18:21:25 10° 302° (WNW) 2,559 8.2 -4.0°
Maximum altitude 18:25:43 21° 255° (WSW) 1,836 8.3 -4.7°
Drops below altitude 10° 18:29:48 10° 208° (SSW) 2,417 8.5 -5.3°
Sets 18:32:42 0° 193° (SSW) 3,284 8.9 -5.8°
